Location: ??????
(38.3184°N, 23.6932°E)
Time: 02:50:08
(UTC+00:00)

Cosmos 2150 Rocket - Pass Details

Date: 16 October 2021
Orbit: 750 x 807 km, 74.0° (Epoch: 04 December)

Event Time Altitude Azimuth Distance (km) Brightness Sun altitude
Rises 16:30:17 0° 198° (SSW) 3,306 7.6 -9.5°
Reaches altitude 10° 16:32:41 10° 199° (SSW) 2,377 6.9 -9.9°
Maximum altitude 16:38:07 84° 288° (WNW) 811 4.2 -11.0°
Drops below altitude 10° 16:43:33 10° 17° (NNE) 2,370 6.3 -12.1°
Sets 16:45:56 0° 18° (NNE) 3,296 7.1 -12.5°
